| time (UTC) | temp F | wind direction | speed MPH | gust MPH | rain 1hr in | rain 24hr in | rain mn in | humidity % | barometer mb |
| 20260505123535 | 58 | 0.0 | 0.0 | 0.00 | 0.21 | 0.02 | |||
| 20260505122516 | 56 | 0.0 | 0.0 | 0.00 | 0.21 | 0.02 | |||
| 20260505121515 | 56 | 0.0 | 0.0 | 0.00 | 0.21 | 0.02 | |||
| 20260505120515 | 56 | 0.0 | 0.0 | 0.00 | 0.21 | 0.02 | |||
| 20260505115535 | 55 | 0.0 | 0.0 | 0.00 | 0.21 | 0.02 | |||
| 20260505114515 | 55 | 0.0 | 0.0 | 0.00 | 0.21 | 0.02 | |||
| 20260505113515 | 55 | 0.0 | 0.0 | 0.00 | 0.21 | 0.02 | |||
| 20260505112535 | 55 | 0.0 | 0.0 | 0.00 | 0.21 | 0.02 | |||
| 20260505111515 | 55 | 0.0 | 0.0 | 0.00 | 0.21 | 0.02 | |||
| 20260505110535 | 55 | 0.0 | 0.0 | 0.00 | 0.21 | 0.02 | |||
| 20260505101515 | 54 | 0.0 | 0.0 | 0.00 | 0.21 | 0.02 | |||
| 20260505100515 | 54 | 0.0 | 0.0 | 0.01 | 0.21 | 0.02 | |||
| 20260505095535 | 54 | 0.0 | 0.0 | 0.02 | 0.21 | 0.02 | |||
| 20260505094516 | 54 | 0.0 | 0.0 | 0.05 | 0.21 | 0.02 | |||
| 20260505093515 | 54 | 0.0 | 0.0 | 0.07 | 0.21 | 0.02 | |||
| 20260505092535 | 54 | 0.0 | 0.0 | 0.08 | 0.21 | 0.02 | |||
| 20260505091515 | 54 | 0.0 | 0.0 | 0.10 | 0.21 | 0.02 | |||
| 20260505090515 | 54 | 0.0 | 0.0 | 0.11 | 0.20 | 0.01 | |||
| 20260505085515 | 55 | 0.0 | 0.0 | 0.16 | 0.19 | 0.19 | |||
| 20260505083515 | 56 | 0.0 | 0.0 | 0.11 | 0.14 | 0.14 | |||
| 20260505082515 | 56 | 0.0 | 0.0 | 0.10 | 0.13 | 0.13 | |||
| 20260505081515 | 56 | 0.0 | 0.0 | 0.09 | 0.11 | 0.11 | |||
| 20260505080515 | 56 | 0.0 | 0.0 | 0.09 | 0.09 | 0.09 | |||
| 20260505075515 | 57 | 0.0 | 0.0 | 0.03 | 0.03 | 0.03 | |||
| 20260505074515 | 57 | 0.0 | 0.0 | 0.03 | 0.03 | 0.03 | |||
| 20260505073515 | 57 | 0.0 | 0.0 | 0.03 | 0.03 | 0.03 | |||
| 20260505072516 | 57 | 0.0 | 0.0 | 0.03 | 0.03 | 0.03 | |||
| 20260505071515 | 59 | 0.0 | 0.0 | 0.02 | 0.02 | 0.02 | |||
| 20260505070515 | 62 | 0.0 | 0.0 | 0.00 | 0.00 | 0.00 | |||
| 20260505065515 | 62 | 0.0 | 0.0 | 0.00 | 0.00 | 0.00 | |||
| 20260505064515 | 62 | 0.0 | 0.0 | 0.00 | 0.00 | 0.00 | |||
| 20260505063515 | 63 | 0.0 | 0.0 | 0.00 | 0.00 | 0.00 | |||
| 20260505062516 | 64 | 0.0 | 0.0 | 0.00 | 0.00 | 0.00 | |||
| 20260505061515 | 65 | 0.0 | 0.0 | 0.00 | 0.00 | 0.00 | |||
| 20260505060535 | 65 | 0.0 | 0.0 | 0.00 | 0.00 | 0.00 | |||
| 20260505055515 | 64 | 0.0 | 0.0 | 0.00 | 0.00 | 0.00 | |||
| 20260505054515 | 64 | 0.0 | 0.0 | 0.00 | 0.00 | 0.00 | |||
| 20260505053515 | 64 | 0.0 | 0.0 | 0.00 | 0.00 | 0.00 | |||
| 20260505052515 | 64 | 0.0 | 0.0 | 0.00 | 0.00 | 0.00 | |||
| 20260505051515 | 64 | 0.0 | 0.0 | 0.00 | 0.00 | 0.00 | |||
| 20260505050515 | 64 | 0.0 | 0.0 | 0.00 | 0.00 | 0.00 | |||
| 20260505041515 | 66 | 0.0 | 0.0 | 0.00 | 0.00 | 0.00 | |||
| 20260505040516 | 66 | 0.0 | 0.0 | 0.00 | 0.00 | 0.00 | |||
| 20260505035516 | 66 | 0.0 | 0.0 | 0.00 | 0.00 | 0.00 | |||
| 20260505034515 | 66 | 0.0 | 0.0 | 0.00 | 0.00 | 0.00 | |||
| 20260505033535 | 66 | 0.0 | 0.0 | 0.00 | 0.00 | 0.00 | |||
| 20260505032515 | 67 | 0.0 | 0.0 | 0.00 | 0.00 | 0.00 | |||
| 20260505031515 | 67 | 0.0 | 0.0 | 0.00 | 0.00 | 0.00 | |||
| 20260505030535 | 67 | 0.0 | 0.0 | 0.00 | 0.00 | 0.00 | |||
| 20260505025515 | 66 | 0.0 | 0.0 | 0.00 | 0.00 | 0.00 | |||
| 20260505024536 | 66 | 0.0 | 0.0 | 0.00 | 0.00 | 0.00 | |||
| 20260505023515 | 66 | 0.0 | 0.0 | 0.00 | 0.00 | 0.00 | |||
| 20260505022536 | 66 | 0.0 | 0.0 | 0.00 | 0.00 | 0.00 | |||
| 20260505021515 | 65 | 0.0 | 0.0 | 0.00 | 0.00 | 0.00 | |||
| 20260505020536 | 65 | 0.0 | 0.0 | 0.00 | 0.00 | 0.00 | |||
| 20260505015515 | 65 | 0.0 | 0.0 | 0.00 | 0.00 | 0.00 | |||
| 20260505014516 | 65 | 0.0 | 0.0 | 0.00 | 0.00 | 0.00 | |||
| 20260505013515 | 66 | 0.0 | 0.0 | 0.00 | 0.00 | 0.00 | |||
| 20260505012535 | 66 | 0.0 | 0.0 | 0.00 | 0.00 | 0.00 | |||
| 20260505011535 | 66 | 0.0 | 0.0 | 0.00 | 0.00 | 0.00 | |||
| 20260505010515 | 67 | 0.0 | 0.0 | 0.00 | 0.00 | 0.00 | |||
| 20260505005515 | 68 | 0.0 | 0.0 | 0.00 | 0.00 | 0.00 | |||
| 20260505004516 | 68 | 0.0 | 0.0 | 0.00 | 0.00 | 0.00 | |||
| 20260505003515 | 69 | 0.0 | 0.0 | 0.00 | 0.00 | 0.00 | |||
| 20260505002515 | 69 | 0.0 | 0.0 | 0.00 | 0.00 | 0.00 | |||
| 20260505001515 | 70 | 0.0 | 0.0 | 0.00 | 0.00 | 0.00 | |||
| 20260505000516 | 70 | 0.0 | 0.0 | 0.00 | 0.00 | 0.00 | |||
| 20260504235515 | 71 | 0.0 | 0.0 | 0.00 | 0.00 | 0.00 | |||
| 20260504234516 | 71 | 0.0 | 0.0 | 0.00 | 0.00 | 0.00 | |||
| 20260504233515 | 72 | 0.0 | 0.0 | 0.00 | 0.00 | 0.00 | |||
| 20260504232516 | 72 | 0.0 | 0.0 | 0.00 | 0.00 | 0.00 | |||
| 20260504231515 | 73 | 0.0 | 0.0 | 0.00 | 0.00 | 0.00 | |||
| 20260504230515 | 74 | 0.0 | 0.0 | 0.00 | 0.00 | 0.00 | |||
| 20260504225515 | 77 | 0.0 | 0.0 | 0.00 | 0.00 | 0.00 | |||
| 20260504224536 | 76 | 0.0 | 0.0 | 0.00 | 0.00 | 0.00 | |||
| 20260504223515 | 75 | 0.0 | 0.0 | 0.00 | 0.00 | 0.00 | |||
| 20260504222515 | 74 | 0.0 | 0.0 | 0.00 | 0.00 | 0.00 | |||
| 20260504221515 | 73 | 0.0 | 0.0 | 0.00 | 0.00 | 0.00 | |||
| 20260504220515 | 75 | 0.0 | 0.0 | 0.00 | 0.00 | 0.00 | |||
| 20260504215515 | 74 | 0.0 | 0.0 | 0.00 | 0.00 | 0.00 | |||
| 20260504214515 | 74 | 0.0 | 0.0 | 0.00 | 0.00 | 0.00 | |||
| 20260504213535 | 75 | 0.0 | 0.0 | 0.00 | 0.00 | 0.00 | |||
| 20260504212515 | 75 | 0.0 | 0.0 | 0.00 | 0.00 | 0.00 | |||
| 20260504211535 | 74 | 0.0 | 0.0 | 0.00 | 0.00 | 0.00 | |||
| 20260504210515 | 73 | 0.0 | 0.0 | 0.00 | 0.00 | 0.00 | |||
| 20260504205535 | 72 | 0.0 | 0.0 | 0.00 | 0.00 | 0.00 | |||
| 20260504204515 | 72 | 0.0 | 0.0 | 0.00 | 0.00 | 0.00 | |||
| 20260504203515 | 74 | 0.0 | 0.0 | 0.00 | 0.00 | 0.00 | |||
| 20260504202515 | 75 | 0.0 | 0.0 | 0.00 | 0.00 | 0.00 | |||
| 20260504201516 | 73 | 0.0 | 0.0 | 0.00 | 0.00 | 0.00 | |||
| 20260504200536 | 73 | 0.0 | 0.0 | 0.00 | 0.00 | 0.00 | |||
| 20260504195536 | 72 | 0.0 | 0.0 | 0.00 | 0.00 | 0.00 | |||
| 20260504194556 | 72 | 0.0 | 0.0 | 0.00 | 0.00 | 0.00 | |||
| 20260504193515 | 70 | 0.0 | 0.0 | 0.00 | 0.00 | 0.00 | |||
| 20260504192516 | 66 | 0.0 | 0.0 | 0.00 | 0.00 | 0.00 | |||
| 20260504191515 | 66 | 0.0 | 0.0 | 0.00 | 0.00 | 0.00 | |||
| 20260504190535 | 65 | 0.0 | 0.0 | 0.00 | 0.00 | 0.00 | |||
| 20260504185515 | 63 | 0.0 | 0.0 | 0.00 | 0.00 | 0.00 | |||
| 20260504184535 | 62 | 0.0 | 0.0 | 0.00 | 0.00 | 0.00 | |||
| 20260504183536 | 63 | 0.0 | 0.0 | 0.00 | 0.00 | 0.00 | |||
| 20260504182515 | 63 | 0.0 | 0.0 | 0.00 | 0.00 | 0.00 | |||
| 20260504181536 | 63 | 0.0 | 0.0 | 0.00 | 0.00 | 0.00 | |||
| 20260504180535 | 64 | 0.0 | 0.0 | 0.00 | 0.00 | 0.00 | |||
| 20260504175515 | 63 | 0.0 | 0.0 | 0.00 | 0.00 | 0.00 | |||
| 20260504174536 | 65 | 0.0 | 0.0 | 0.00 | 0.00 | 0.00 | |||
| 20260504173535 | 66 | 0.0 | 0.0 | 0.00 | 0.00 | 0.00 | |||
| 20260504172515 | 66 | 0.0 | 0.0 | 0.00 | 0.00 | 0.00 | |||
| 20260504171535 | 67 | 0.0 | 0.0 | 0.00 | 0.00 | 0.00 | |||
| 20260504170515 | 68 | 0.0 | 0.0 | 0.00 | 0.00 | 0.00 | |||
| 20260504150535 | 65 | 0.0 | 0.0 | 0.00 | 0.00 | 0.00 | |||
| 20260504140515 | 62 | 0.0 | 0.0 | 0.00 | 0.00 | 0.00 | |||
| 20260504130516 | 60 | 0.0 | 0.0 | 0.00 | 0.00 | 0.00 |